Terminal Aerodrome Forecast
Issued by NWS Tulsa, OK

Home | Current Version | Previous Version | Text Only | Print | Product List | Glossary On
Versions: 1 2 3 4 5 6 7 8 9 10 11 12 13 14 15 16 17 18 19 20 21 22 23 24
000
FTUS44 KTSA 280229 AAA
TAFTUL
TAF AMD
KTUL 280229Z 2802/2824 17014KT P6SM FEW035 OVC250
     FM280900 19008KT P6SM BKN020
     FM281500 20008KT P6SM SCT250=

USA.gov is the U.S. government's official web portal to all federal, state and local government web resources and services.